AirNav   Pilot Hours Calculator
 
 969 users online  

51A Hawkinsville-Pulaski County Airport
Hawkinsville, Georgia, USA

GOING TO HAWKINSVILLE?


FAA INFORMATION EFFECTIVE 05 DECEMBER 2019

Location

FAA Identifier: 51A
Lat/Long: 32-17-01.2000N 083-26-16.7000W
32-17.020000N 083-26.278333W
32.2836667,-83.4379722
(estimated)
Elevation: 270 ft. / 82.3 m (surveyed)
Variation: 02W (1985)
From city: 2 miles E of HAWKINSVILLE, GA
Time zone: UTC -5 (UTC -4 during Daylight Saving Time)
Zip code: 31036

Airport Operations

Airport use: Open to the public
Activation date: 03/1963
Control tower: no
ARTCC: ATLANTA CENTER
FSS: MACON FLIGHT SERVICE STATION
NOTAMs facility: MCN (NOTAM-D service available)
Attendance: UNATNDD
Wind indicator: lighted
Segmented circle: no
Lights: DUSK-2300. MIRL RY 10/28 PRESET MED INTST DUSK-2300; TO INCR INTST AND ACTVT AFTER 2300 - CTAF.
Beacon: white-green (lighted land airport)
ARPT BCN LCTD 1000 FT SOUTH ON WATER TWR. Operates sunset to sunrise.

Airport Communications

CTAF: 122.9
WX AWOS-3PT at 48A (11 nm NE): 120.975 (478-271-5897)
WX AWOS-3 at EZM (16 nm E): 119.425 (478-374-9979)

Nearby radio navigation aids

VOR radial/distance  VOR name  Freq  Var
VNAr035/5.2VIENNA VORTAC116.5001E
MCNr156/26.6MACON VORTAC114.2001E
DBNr246/35.1DUBLIN VORTAC113.1005W

 
NDB name  Hdg/Dist  Freq  Var  ID
EASTMAN306/17.136604WEZM . --.. --
CONEY057/27.540006WOHY --- .... -.--
MONTEZUMA104/29.342604WIZS .. --.. ...
MC RAE295/30.328003WMQW -- --.- .--
LINDBERGH083/34.624204WLKG .-.. -.- --.

Airport Services

Parking: tiedowns
Airframe service: NONE
Powerplant service: NONE
Bottled oxygen: NONE
Bulk oxygen: NONE

Runway Information

Runway 10/28

Dimensions: 3000 x 60 ft. / 914 x 18 m
Surface: asphalt, in poor condition
UNFILLED CRACKS AS LRG AS INCHES TWDS 28 END.
Weight bearing capacity: 
Single wheel: 12.5
Runway edge lights: medium intensity
RUNWAY 10  RUNWAY 28
Latitude: 32-17.059350N32-16.980187N
Longitude: 083-26.565260W083-25.990198W
Elevation: 260.0 ft.267.0 ft.
Traffic pattern: leftleft
Runway heading: 101 magnetic, 099 true281 magnetic, 279 true
Markings: basic, in fair conditionbasic, in fair condition
Obstructions: 40 ft. trees, 600 ft. from runway, 150 ft. left of centerline, 10:1 slope to clear31 ft. trees, 727 ft. from runway, 150 ft. left of centerline, 17:1 slope to clear

Airport Ownership and Management from official FAA records

Ownership: Publicly-owned
Owner: CITY OF HAWKINSVILLE
P.O. BOX 120
HAWKINSVILLE, GA 31036
Phone 478-892-3240
AND PULASKI COUNTY.
Manager: SARA MYERS
P.O. BOX 120, 96 BROAD STREET
HAWKINSVILLE, GA 31036
Phone 478-892-3240
CITY MANAGER

Airport Operational Statistics

Aircraft based on the field: 2
Single engine airplanes: 2
    
Aircraft operations: avg 96/week *
80% local general aviation
20% transient general aviation
* for 12-month period ending 31 December 2018

Additional Remarks

DEER ON & INVOF ARPT.
FOR CD CTC ATLANTA APCH AT 678-364-6132, WHEN APCH CLSD CTC ATLANTA ARTCC AT 770-210-7692.

Instrument Procedures

There are no published instrument procedures at 51A.

Some nearby airports with instrument procedures:

48A - Cochran Airport (11 nm NE)
KEZM - Heart of Georgia Regional Airport (16 nm E)
KPXE - Perry-Houston County Airport (22 nm NW)
KWRB - Robins Air Force Base (23 nm N)
KCKF - Crisp County-Cordele Airport (25 nm SW)
 
Loc | Ops | Rwys | IFR | FBO | Links
Com | Nav | Svcs | Stats | Notes
Area around 51A (Hawkinsville-Pulaski County Airport)
 
Road maps at: MapQuest Bing Google
 
Aerial photo
WARNING: Photo may not be current or correct
Aerial photo of 51A (Hawkinsville-Pulaski County Airport)
Do you have a better or more recent aerial photo of Hawkinsville-Pulaski County Airport that you would like to share? If so, please send us your photo.

 
Sectional chart

 
Airport distance calculator
Flying to Hawkinsville-Pulaski County Airport? Find the distance to fly.

From to 51A

Sunrise and sunset
Times for 10-Dec-2019
 Local
(UTC-5)
 Zulu
(UTC)
Morning civil twilight06:5811:58
Sunrise07:2512:25
Sunset17:2822:28
Evening civil twilight17:5522:55

Current date and time
Zulu (UTC)  11-Dec-2019 00:42:18
Local (UTC-5)  10-Dec-2019 19:42:18
 
METAR
KEZM 
16nm E 
110015Z AUTO 36004KT 10SM RA OVC007 14/13 A3012 RMK AO2 T01360128
KWRB 
21nm N 
110008Z 33009KT 10SM SCT012 OVC030 11/10 A3012 RMK AO2A SLP202
KPXE 
22nm NW 
110015Z AUTO 34010KT 10SM BKN010 OVC028 11/10 A3014 RMK AO2 T01070095
KCKF 
25nm SW 
110015Z AUTO 02010G15KT 10SM BKN008 OVC022 12/11 A3012 RMK AO2 T01210110
KMCN 
26nm NW 
110016Z 32011KT 10SM BKN012 OVC031 11/09 A3014 RMK AO2 T01060089
KDBN 
28nm NE 
110015Z AUTO 32009G14KT 10SM OVC007 12/12 A3013 RMK AO2
TAF
KWRB 
21nm N 
102100Z 1021/1203 27020KT 9000 -SHRA BKN020 510013 QNH2995INS BECMG 1021/1022 33012G20KT 8000 -SHRA OVC010 510162 QNH3008INS BECMG 1102/1103 33009KT 9000 -SHRA BKN020 QNH3012INS BECMG 1105/1106 32006KT 9999 NSW SCT025 QNH3016INS BECMG 1121/1122 35006KT 9999 FEW250 QNH3040INS TX25/1021Z TN06/1103Z
KMCN 
26nm NW 
101952Z 1020/1118 22010G19KT P6SM VCSH SCT020 BKN030 TEMPO 1020/1024 4SM -SHRA BR BKN012 FM110000 33009KT 6SM -SHRA BR OVC020 FM111100 34009KT P6SM OVC040
NOTAMs
Click for the latest NOTAMs
NOTAMs are issued by the DoD/FAA and will open in a separate window not controlled by AirNav.

 

 
 

Would you like to see your business listed on this page?

 If your business provides an interesting product or service to pilots, flight crews, aircraft, or users of the Hawkinsville-Pulaski County Airport, you should consider listing it here.  To start the listing process, click on the button below
 
Add a business
 

Other Pages about Hawkinsville-Pulaski County Airport

Update a link
 
Copyright © AirNav, LLC. All rights reserved. Privacy Policy  Contact